This demonstration page uses our WeatherBlox Daily Observations layout. Learn more.

38.89511, -77.03637

Hourly Observations for February 25, 2015

Temp ( °F °C ) Dew Point ( °F °C ) Humidity (%) Winds ( mph kmh ) Pressure ( in mb ) Visibility ( mi km ) Precip ( " mm )
12:52 am 00:52 Partly Cloudy 23 -5 11 -11.7 60 60 SW 3 6 29.83 1010 10 16.0934 0 0
1:52 am 01:52 Mostly Cloudy 23 -5 12 -11.1 63 63 SSW 3 6 29.82 1010 10 16.0934 0 0
2:52 am 02:52 Mostly Clear 22 -5.6 12 -11.1 66 66 SW 5 7 29.81 1010 10 16.0934 0 0
3:52 am 03:52 Mostly Cloudy 23 -5 12 -11.1 63 63 Calm 29.83 1010 10 16.0934 0 0
4:52 am 04:52 Mostly Clear 22 -5.6 11 -11.7 63 63 NNE 3 6 29.86 1011 10 16.0934 0 0
5:52 am 05:52 Partly Cloudy 23 -5 10 -12.2 57 57 Calm 29.88 1012 10 16.0934 0 0
6:52 am 06:52 Mostly Sunny 23 -5 13 -10.6 65 65 S 5 7 29.9 1012 10 16.0934 0 0
7:52 am 07:52 Partly Cloudy 23 -5 15 -9.4 72 72 Calm 29.91 1013 10 16.0934 0 0
8:52 am 08:52 Mostly Cloudy 26 -3.3 17 -8.3 69 69 S 9 15 29.93 1014 10 16.0934 0 0
9:52 am 09:52 Mostly Cloudy 30 -1.1 16 -8.9 56 56 SSW 7 11 29.95 1014 10 16.0934 0 0
10:52 am 10:52 Mostly Cloudy 33 0.6 19 -7.2 56 56 S 9 15 29.97 1015 10 16.0934 0 0
11:52 am 11:52 Mostly Cloudy 36 2.2 18 -7.8 48 48 SSE 6 9 29.99 1016 10 16.0934 0 0
12:52 pm 12:52 Cloudy 40 4.4 16 -8.9 38 38 W 10 17 29.97 1015 10 16.0934 0 0
1:52 pm 13:52 Cloudy 40 4.4 15 -9.4 36 36 SW 5 7 29.95 1014 10 16.0934 0 0
2:52 pm 14:52 Cloudy 41 5 14 -10 33 33 W 7 11 29.94 1014 10 16.0934 0 0
3:52 pm 15:52 Cloudy 41 5 14 -10 33 33 SSW 3 6 29.93 1014 10 16.0934 0 0
4:52 pm 16:52 Cloudy 41 5 14 -10 33 33 W 6 9 29.93 1014 10 16.0934 0 0
5:52 pm 17:52 Cloudy 41 5 13 -10.6 32 32 Calm 29.95 1014 10 16.0934 0 0
6:52 pm 18:52 Cloudy 40 4.4 16 -8.9 38 38 Calm 29.97 1015 10 16.0934 0 0
7:52 pm 19:52 Cloudy 37 2.8 20 -6.7 50 50 E 3 6 29.96 1015 10 16.0934 0 0
8:52 pm 20:52 Cloudy 37 2.8 20 -6.7 50 50 SE 3 6 29.98 1015 10 16.0934 0 0
9:52 pm 21:52 Cloudy 36 2.2 18 -7.8 48 48 SE 6 9 29.96 1014 10 16.0934 0 0
10:52 pm 22:52 Cloudy 36 2.2 18 -7.8 48 48 SSW 7 11 30.02 1017 10 16.0934 0 0
11:52 pm 23:52 Cloudy 36 2.2 19 -7.2 50 50 Calm 29.95 1014 10 16.0934 0 0

Powered by AerisWeather